This is the latest recevied weather packets stored in our database for station/object N8DMH-13. If no packets are shown the sender has not sent any weather packets the latest 10 day(s).
| Time | Temp. | Humidity | Pressure | Rain* | Wind** | Luminosity | Snow |
|---|---|---|---|---|---|---|---|
| 1777907225 | 20.56° C | 43% | 997.3 hPa | 0 mm | - | - | - |
| 1777906925 | 20.56° C | 42% | 997.3 hPa | 0 mm | - | - | - |
| 1777906625 | 20.56° C | 44% | 997.4 hPa | 0 mm | - | - | - |
| 1777906295 | 20° C | 44% | 997.5 hPa | 0 mm | - | - | - |
| 1777905995 | 20° C | 44% | 997.5 hPa | 0 mm | - | - | - |
| 1777905695 | 20° C | 45% | 997.4 hPa | 0 mm | - | - | - |
| 1777905364 | 19.44° C | 46% | 997.5 hPa | 0 mm | - | - | - |
| 1777905064 | 19.44° C | 45% | 997.6 hPa | 0 mm | - | - | - |
| 1777904764 | 18.89° C | 47% | 997.6 hPa | 0 mm | - | - | - |
| 1777904434 | 18.33° C | 45% | 997.8 hPa | 0 mm | - | - | - |
| 1777904134 | 18.33° C | 50% | 997.9 hPa | 0 mm | - | - | - |
| 1777903804 | 17.78° C | 53% | 998 hPa | 0 mm | - | - | - |
| 1777903504 | 17.78° C | 55% | 998 hPa | 0 mm | - | - | - |
| 1777903204 | 17.22° C | 56% | 998 hPa | 0 mm | - | - | - |
| 1777902906 | 16.67° C | 58% | 998.2 hPa | 0 mm | - | - | - |
| 1777902574 | 16.11° C | 61% | 998.1 hPa | 0 mm | - | - | - |
| 1777902273 | 15.56° C | 64% | 998.1 hPa | 0 mm | - | - | - |
| 1777901943 | 15° C | 63% | 998.2 hPa | 0 mm | - | - | - |
| 1777901643 | 14.44° C | 67% | 998.2 hPa | 0 mm | - | - | - |
| 1777901313 | 13.89° C | 67% | 998.3 hPa | 0 mm | - | - | - |
| 1777900983 | 13.89° C | 68% | 998.4 hPa | 0 mm | - | - | - |
| 1777900685 | 13.33° C | 70% | 998.5 hPa | 0 mm | - | - | - |
| 1777900353 | 13.33° C | 71% | 998.5 hPa | 0 mm | - | - | - |
| 1777900023 | 12.78° C | 72% | 998.6 hPa | 0 mm | - | - | - |
| 1777899723 | 12.78° C | 72% | 998.6 hPa | 0 mm | - | - | - |
* Rain latest hour (hover to see other rain measurements)
** Current wind speed in m/s (hover to see current wind gust speed)